Welcome to the New NWS' Forecast!
Most changes are behind the scenes, but click here for differences you might notice.
Latest weather observations around

Gadsden, Gadsden Municipal Airport (KGAD)

Using English Units (Switch to International System of Units)
Date/ Time (CDT) Wind (mph) Vis. (mi) Weather Sky Cond. Temp (°F) Rel. Humidity Wind Chill (°F) Heat Index (°F) Pressure Precip. (in)
Air Dwpt 6 hour Altimeter (inHg) Sea level (inHg) 1 hr 3 hr 6 hr
Max Min
Oct 23 01:56 Calm 10 Clear CLR 43 43     100%     30.24 30.25      
Oct 23 00:56 Calm 10 Clear CLR 45 45     100%     30.24 30.25      
Oct 22 23:56 Calm 10 Clear CLR 44 44     100%     30.24 30.25      
Oct 22 22:56 Calm 10 Clear CLR 45 45     100%     30.24 30.26      
Oct 22 21:56 Calm 10 Clear CLR 46 46     100%     30.24 30.25      
Oct 22 20:56 Calm 10 Clear CLR 49 48     97%     30.23 30.24      
Oct 22 19:56 Calm 10 Clear CLR 50 49     96%     30.23 30.25      
Oct 22 18:56 Calm 10 Clear CLR 54 50     86%     30.22 30.23      
Oct 22 17:56 Calm 10 Clear CLR 57 51     81%     30.21 30.23      
Oct 22 16:56 Calm 10 Clear CLR 65 40     40%     30.22 30.23      
Oct 22 15:56 Calm 10 Clear CLR 67 38     34%     30.22 30.24      
Oct 22 14:56 3 10 Clear CLR 67 41     39%     30.22 30.24      
Oct 22 13:56 N 5 10 Clear CLR 65 41     42%     30.24 30.26      
Oct 22 12:56 Calm 10 Clear CLR 64 39     40%     30.28 30.29      
Oct 22 11:56 5 10 Clear CLR 62 42     48%     30.3 30.32      
Oct 22 10:56 3 10 Clear CLR 57 43     59%     30.32 30.34      
Oct 22 09:56 NE 5 10 Clear CLR 51 45     79%     30.34 30.35      
Oct 22 08:56 Calm 10 Clear CLR 45 43     93%     30.35 30.36      
Oct 22 07:56 Calm 10 Clear CLR 37 37     100%     30.33 30.35      
Oct 22 06:56 Calm 10 Clear CLR 33 33     100%     30.3 30.32      
Oct 22 04:56 Calm 10 Clear CLR 34 34     100%     30.28 30.29      
Oct 22 03:56 Calm 10 Clear CLR 34 34     100%     30.27 30.28      
Oct 22 02:56 Calm 10 Clear CLR 35 35     100%     30.26 30.27      
Oct 22 01:56 Calm 10 Clear CLR 35 35     100%     30.27 30.28      
Oct 22 00:56 Calm 10 Clear CLR 37 37     100%     30.28 30.29      
Oct 21 23:56 Calm 10 Clear CLR 37 37     100%     30.27 30.29      
Oct 21 22:56 NNW 3 10 Clear CLR 39 39     100% 37   30.27 30.29      
Oct 21 21:56 Calm 10 Clear CLR 41 40     96%     30.27 30.29      
Oct 21 20:56 Calm 10 Clear CLR 42 41     96%     30.27 30.28      
Oct 21 19:56 Calm 10 Clear CLR 44 40     85%     30.26 30.27      
Oct 21 18:56 N 7 10 Clear CLR 50 39     66%     30.25 30.26      
Oct 21 17:56 NNE 6 10 Clear CLR 56 35     45%     30.24 30.25      
Oct 21 16:56 NNE 8 10 Clear CLR 61 32     33%     30.23 30.24      
Oct 21 15:56 N 7 10 Clear CLR 61 33     35%     30.24 30.25      
Oct 21 14:56 5 10 Clear CLR 61 33     35%     30.25 30.25      
Oct 21 13:56 E 6 10 Clear CLR 60 35     39%     30.27 30.28      
Oct 21 12:56 S 6 10 Clear CLR 56 33     42%     30.3 30.31      
Oct 21 11:56 E 8 10 Clear CLR 55 34     45%     30.32 30.33      
Oct 21 10:56 N 8 10 Clear CLR 52 33     48%     30.33 30.34      
Oct 21 09:56 NE 13 10 Clear CLR 49 32     52% 44   30.33 30.34      
Oct 21 08:56 NE 13 10 Clear CLR 45 31     58% 39   30.33 30.34      
Oct 21 07:56 NNE 10 10 Clear CLR 43 31     62% 37   30.31 30.32      
Oct 21 06:56 N 8 10 Clear CLR 40 31     70% 34   30.28 30.29      
Oct 21 05:56 N 7 10 Clear CLR 42 31     64% 38   30.26 30.28      
Oct 21 04:56 N 9 10 Clear CLR 45 30     56% 40   30.23 30.24      
Oct 21 03:56 N 10 10 Clear CLR 48 29     47% 43   30.21 30.22      
Oct 21 02:56 N 11 10 Clear CLR 50 36     58%     30.19 30.19      
Oct 21 01:56 N 11 10 Clear CLR 52 41     66%     30.17 30.18      
Oct 21 00:56 NW 5 10 Clear CLR 54 49     83%     30.16 30.16      
Oct 20 23:56 WNW 6 9 Clear CLR 54 51     90%     30.15 30.16      
Oct 20 22:56 SW 3 10 Clear CLR 53 52     96%     30.16 30.17      
Oct 20 21:56 Calm 10 Clear CLR 56 53     90%     30.15 30.16      
Oct 20 20:56 WSW 3 10 Clear CLR 56 53     90%     30.13 30.14      
Oct 20 19:56 WNW 6 10 Clear CLR 59 53     81%     30.12 30.12      
Oct 20 18:56 W 5 10 Clear CLR 57 56     96%     30.08 30.09     0
Oct 20 17:56 W 6 10 Clear CLR 62 57     84%     30.05 30.06      
Oct 20 16:56 NW 8 10 Mostly Clear FEW025 66 57     73%     30.05 30.05      
Oct 20 16:37 WNW 10 10 Partly Cloudy SCT025 64 57     77%     30.04        
Oct 20 16:28 WNW 9 10 Mostly Cloudy BKN025 66 57     73%     30.03        
Oct 20 16:11 WNW 9 10 Mostly Clear FEW023 64 57     77%     30.04        
Oct 20 16:04 NW 8 10 Mostly Cloudy BKN021 66 59     78%     30.04        
Oct 20 15:56 NW 5 10 Partly Cloudy SCT021 64 59     84%     30.04 30.04   0  
Oct 20 14:56 WNW 11 10 Cloudy OVC019 65 60     84%     30.04 30.04      
Oct 20 13:56 WNW 7 10 Cloudy OVC015 63 61     93%     30.04 30.05 0    
Oct 20 12:56 WNW 7 10 Light Rain SCT011 BKN015 OVC020 63 63     100%     30.06 30.06 0   0
Oct 20 12:32 W 6 10 Light Rain BKN014 OVC070 63 63     100%     30.07   0    
Oct 20 11:56 W 7 5 Light Rain and Fog/Mist FEW015 BKN039 OVC049 62 62     100%     30.08 30.08 0    
Oct 20 10:56 W 5 10 Cloudy OVC045 62 61     96%     30.1 30.1      
Oct 20 10:18 NW 7 10 Cloudy SCT014 OVC040 63 61     94%     30.1        
Oct 20 10:07 3 10 Cloudy BKN014 BKN036 OVC046 63 61     94%     30.1        
Oct 20 09:56 NW 5 10 Cloudy SCT014 BKN034 OVC046 62 60     93%     30.1 30.1   0  
Oct 20 09:04 WNW 5 10 Cloudy OVC030 61 61     100%     30.09        
Oct 20 08:56 NW 6 10 Cloudy OVC028 61 60     97%     30.09 30.09 0    
Oct 20 07:56 NNW 3 10 Cloudy BKN027 OVC034 62 59     90%     30.07 30.07 0    
Oct 20 07:46 Calm 10 Cloudy BKN027 BKN039 OVC080 63 59     88%     30.07   0    
Oct 20 06:56 NNW 5 10 Cloudy FEW024 BKN035 OVC055 63 61     93%     30.06 30.06 0   0
Oct 20 05:56 NW 10 10 Cloudy OVC038 66 62     87%     30.04 30.04 0    
Oct 20 04:56 NW 7 10 Cloudy OVC036 66 66     100%     30.03 30.03      
Oct 20 03:56 Calm 10 Cloudy BKN038 OVC048 66 66     100%     30.02 30.02      
Oct 20 02:56 SW 3 10 Cloudy BKN050 OVC080 66 66     100%     30.05 30.05      
Oct 20 01:56 Calm 10 Cloudy BKN060 OVC080 66 66     100%     30.07 30.07      
Oct 20 00:56 Calm 10 Cloudy OVC060 66 66     100%     30.09 30.09      
Oct 19 23:56 Calm 10 Mostly Cloudy BKN075 BKN110 66 66     100%     30.1 30.1      
Oct 19 22:56 Calm 10 Mostly Cloudy FEW070 BKN100 66 66     100%     30.11 30.11      
Oct 19 21:56 Calm 10 Clear CLR 67 66     97%     30.13 30.13      
Oct 19 20:56 Calm 10 Clear CLR 66 66     100%     30.13 30.13      
Oct 19 19:56 Calm 10 Cloudy OVC050 67 67     100%     30.13 30.14      
Oct 19 18:56 Calm 10 Clear CLR 68 66     93%     30.13 30.14      
Oct 19 17:56 Calm 10 Clear CLR 72 64     76%   72 30.13 30.14      
Oct 19 16:56 Calm 10 Clear CLR 76 62     62%   76 30.14 30.14      
Oct 19 15:56 SW 3 10 Clear CLR 78 61     56%   78 30.14 30.14      
Oct 19 14:56 W 5 10 Clear CLR 76 62     62%   76 30.16 30.17      
Oct 19 13:56 SSW 7 10 Clear CLR 74 63     69%   74 30.19 30.2      
Oct 19 13:34 3 10 Partly Cloudy SCT026 73 63     69%   74 30.2        
Oct 19 13:25 SE 7 10 Mostly Cloudy BKN026 73 63     69%   74 30.21        
Oct 19 12:56 Calm 10 Mostly Clear FEW024 71 60     68%   71 30.23 30.24      
Oct 19 12:44 ESE 3 10 Partly Cloudy SCT020 72 61     69%   72 30.24        
Oct 19 11:56 N 3 10 Cloudy OVC020 67 58     73%     30.28 30.28      
Oct 19 10:56 E 3 10 Cloudy OVC018 64 56     75%     30.3 30.31      
Oct 19 09:56 ENE 6 10 Cloudy OVC020 61 55     81%     30.31 30.32      
Oct 19 08:56 E 8 10 Cloudy OVC020 58 54     87%     30.32 30.33      
Oct 19 07:56 ENE 8 10 Cloudy OVC022 55 54     96%     30.31 30.32      
Oct 19 07:29 ENE 7 10 Mostly Cloudy BKN024 54 54     100%     30.31        
Oct 19 06:56 ENE 5 10 Clear CLR 51 51     100%     30.31 30.32      
Oct 19 05:56 Calm 10 Clear CLR 48 48     100%     30.3 30.31      
Oct 19 04:56 Calm 10 Clear CLR 47 47     100%     30.3 30.31      
Oct 19 03:56 NE 3 10 Clear CLR 49 49     100% 48   30.3 30.31      
Oct 19 02:56 Calm 10 Clear   49 49     100%     30.31 30.32      
Oct 19 01:56 Calm 10 Clear CLR 49 49     100%     30.32 30.33      
Oct 19 00:56 Calm 10 Clear CLR 50 50     100%     30.33 30.34      
Oct 18 23:56 Calm 10 Clear CLR 52 52     100%     30.33 30.34      
Oct 18 22:56 N 5 10 Clear CLR 52 52     100%     30.34 30.35      
Oct 18 21:56 Calm 10 Clear CLR 53 53     100%     30.34 30.35      
Oct 18 20:56 Calm 10 Clear CLR 54 53     97%     30.34 30.35      
Oct 18 20:07 Calm 6 Fog/Mist CLR 55 54     94%     30.33        
Oct 18 20:00 NE 3 2 Fog/Mist CLR 57 54     88%     30.34        
Oct 18 19:56 NE 5 1 Haze CLR 58 53     84%     30.33 30.34      
Oct 18 19:44 NNE 3 0.75 Haze CLR 59 54     82%     30.34        
Oct 18 19:40 NNE 3 1.5 Haze CLR 59 54     82%     30.33        
Oct 18 19:27 Calm 4 Haze CLR 57 54     88%     30.33        
Oct 18 19:16 Calm 1.75 Haze CLR 59 52     77%     30.33        
Oct 18 18:56 NE 3 10 Clear CLR 60 52     75%     30.32 30.34      
Oct 18 17:56 ENE 6 10 Clear CLR 64 53     67%     30.32 30.33      
Oct 18 16:56 ENE 7 10 Clear CLR 70 52     53%     30.32 30.32      
Oct 18 15:56 E 7 10 Clear CLR 72 51     48%   71 30.31 30.32      
Oct 18 14:56 E 6 10 Clear CLR 72 49     44%   71 30.31 30.32      
Oct 18 13:56 5 10 Clear CLR 70 48     46%     30.33 30.33      
Oct 18 12:56 E 9 10 Clear CLR 70 49     47%     30.35 30.35      
Oct 18 11:56 ENE 8 10 Clear CLR 67 47     49%     30.38 30.39      
Oct 18 10:56 NE 3 10 Clear CLR 65 47     52%     30.4 30.41      
Oct 18 09:56 ENE 8 10 Clear CLR 62 47     58%     30.41 30.42      
Oct 18 08:56 NNE 10 10 Clear CLR 57 47     69%     30.4 30.4      
May 15 08:56 SE 6 10 Mostly Clear FEW060 77 68     74%   78 30.02 30.01      
May 15 05:56 NNW 6 4 Fog/Mist CLR 65 65     100%     30.01 30      
May 15 03:56 Calm 8 Mostly Clear FEW070 67 67     100%     29.99 29.98      
May 14 13:56 N 5 10 Clear CLR 91 65     42%   93 30.02 30.01      
May 14 11:56 NNE 9 10 Mostly Clear FEW060 87 65     48%   89 30.05 30.04      
May 13 18:56 Calm 10 Clear CLR 85 67     55%   88 30.03 30.03      
May 13 17:56 WNW 6 10 Clear CLR 88 64     45%   89 30.03 30.03      
May 13 03:56 Calm 2 Fog/Mist CLR 58 58     100%     30.09 30.09      
May 13 00:56 Calm 5 Fog/Mist CLR 61 61     100%     30.09 30.09      
May 12 04:56 Calm 8 Clear CLR 59 59     100%     30.14 30.14      
May 12 03:56 W 3 8 Clear CLR 59 59     100%     30.12 30.11      
May 11 20:56 WSW 3 10 Clear CLR 70 66     87%     30.09 30.09      
Jun 12 04:56 Calm 10 Mostly Cloudy FEW028 BKN034 70 69     97%     30.15 30.18      
Jun 11 10:20 Calm 10 Mostly Cloudy BKN021 81 72     74%   85 30.18        
Jun 10 21:56 Calm 10 Clear   70 64     81%     30.11 30.14      
Jun 10 20:56 Calm 10 Clear CLR 74 64     71%   74 30.08 30.11      
Jun 10 03:56 Calm 10 Mostly Clear FEW070 60 60     100%     30.02 30.05      
Jun 08 22:56 Calm 10 Mostly Clear FEW060 62 60     93%     29.93 29.97      
Jun 07 18:56 N 9 10 Clear CLR 77 55     47%   77 29.85 29.89      
Jun 07 15:56 NNE 14 10 Clear CLR 82 54     38%   81 29.83 29.86      
Jun 07 13:56 N 10 10 Clear CLR 81 60     49%   82 29.83 29.87      
Jun 07 11:56 NE 10 10 Clear CLR 78 62     58%   78 29.85        
Jun 06 04:23 Calm 7 Partly Cloudy SCT003 70 70     100%     29.8        
Jun 05 23:56 Calm 10 Light Rain CLR 71 70     96%   72 29.84 29.86 0